Location: Frydek-Mistek
(49.6830°N, 18.3330°E)
Time: 09:29:37
(UTC+02:00)

ISS - Pass Details

Date: 18 May 2021
Orbit: 417 x 422 km, 51.6° (Epoch: 13 June)

Event Time Altitude Azimuth Distance (km) Brightness Sun altitude
Rises 01:18:07 0° 287° (WNW) 2,370 0.2 -20.3°
Reaches altitude 10° 01:20:13 10° 287° (WNW) 1,506 -0.9 -20.3°
Enters shadow 01:22:48 50° 285° (WNW) 545 -3.3 -20.2°
